#timestamp,LO_Frequency,Hit,StdDev 
1605639615.5,286047002.2,N
1605639635.3,286047001.5,N
1605639655.1,286047001.6,N
1605639675.9,286047002.4,N
1605639695.7,286047004.4,Y
1605639715.6,286047004.4,P
1605639735.4,286047002.2,N
1605639755.2,286047001.2,N
1605639775.1,286046999.9,N
1605639776.0,286046999.9,N
1605639795.8,286047000.8,N
1605639815.6,286046998.9,N
1605639835.5,286047001.2,N
1605639855.3,286046998.5,N
1605639875.2,286047001.1,N
1605639895.9,286046999.4,N
1605639915.7,286046998.1,N
1605639935.6,286046998.1,N
1605639955.4,286047000.5,N
1605639975.2,286047000.0,N
1605639995.1,286046998.3,N
1605639996.0,286046998.3,N
1605640015.8,286047000.5,N
1605640035.7,286047000.7,N
1605640055.5,286046999.7,N
1605640075.3,286047000.4,N
1605640095.2,286047000.6,N
1605640115.9,286046999.8,N
1605640135.7,286047000.2,N
1605640155.6,286047001.2,N
1605640175.4,286047000.3,N
1605640195.2,286046999.9,N
1605640215.1,286047002.0,N
1605640216.0,286047002.0,N
1605640235.8,286047000.6,N
1605640255.7,286046998.2,N
1605640275.5,286046998.5,N
1605640295.3,286047001.2,N
1605640315.2,286047000.0,N
1605640335.0,286047002.3,N
1605640335.9,286047002.3,N
1605640355.7,286047000.3,N
1605640375.6,286047001.1,N
1605640395.4,286046998.3,N
1605640415.3,286047000.9,N
1605640435.1,286046998.4,N
1605640436.0,286046998.4,N
1605640455.8,286046999.0,N
1605640475.7,286047000.7,N
1605640495.5,286047000.7,N
1605640515.3,286047000.3,N
1605640535.2,286046998.5,N
1605640555.0,286046999.2,N
1605640555.9,286046999.2,N
1605640575.8,286046996.6,N
1605640595.6,286046997.3,N
1605640615.4,286046997.4,N
1605640635.3,286046996.7,N
1605640655.1,286046998.8,N
1605640675.9,286046998.4,N
1605640695.7,286046999.2,N
1605640715.5,286046999.5,N
1605640735.4,286046998.7,N
1605640755.2,286046997.4,N
1605640775.0,286046997.3,N
1605640775.9,286046997.3,N
1605640795.8,286046997.2,N
1605640815.6,286046995.3,N
1605640835.5,286046999.3,N
1605640855.3,286046994.9,Y
1605640875.1,286046999.0,P
1605640895.9,286046999.4,P
1605640915.7,286047001.0,P
1605640935.5,286046999.8,N
1605640955.4,286047001.1,N
1605640975.2,286047000.8,N
1605640995.1,286046998.3,N
1605640996.0,286046998.3,N
1605641015.8,286047000.6,N
1605641035.6,286047000.7,N
1605641055.5,286047000.9,N
1605641075.3,286047000.7,N
1605641095.1,286047001.0,N
1605641115.9,286047000.6,N
1605641135.7,286046998.4,N
1605641155.6,286046998.3,N
1605641175.4,286046998.9,N
1605641195.2,286046999.9,N
1605641215.1,286047000.4,N
1605641216.0,286047000.4,N
1605641235.8,286046996.9,Y
1605641255.6,286047000.6,P
1605641275.5,286047001.1,N
1605641295.3,286047002.3,P
1605641315.2,286046999.8,N
1605641335.9,286047000.1,N
1605641355.7,286047000.4,N
1605641375.6,286047000.9,N
1605641395.4,286047000.7,N
1605641415.2,286047002.1,N
1605641435.1,286047000.5,N
1605641436.0,286047000.5,N
1605641455.8,286047000.2,N
1605641475.7,286047004.4,Y
1605641495.5,286047002.2,P
1605641515.3,286047000.2,N
1605641535.2,286046999.8,N
1605641555.0,286047000.1,N
1605641555.9,286047000.1,N
1605641575.7,286047000.5,N
1605641595.6,286046999.1,N
1605641615.4,286047001.2,N
1605641635.3,286046998.8,N
1605641655.1,286046999.4,N
1605641656.0,286046999.4,N
1605641675.8,286047001.2,N
1605641695.7,286047002.6,N
1605641715.5,286047003.8,Y
1605641735.3,286047000.0,P
1605641755.2,286046996.5,P
1605641775.0,286046998.6,N
1605641775.9,286046998.6,N
1605641795.8,286046998.7,N
1605641815.6,286046998.4,N
1605641835.4,286047000.6,N
1605641855.3,286046999.4,N
1605641875.1,286046996.5,N
1605641895.8,286046997.0,N
1605641915.7,286046997.2,N
1605641935.5,286046997.5,N
1605641955.4,286046994.9,Y
1605641975.2,286046999.0,P
1605641995.0,286046999.3,N
1605641995.9,286046999.3,N
1605642015.8,286046998.3,Y
1605642035.6,286047000.6,P
1605642055.4,286046998.1,N
1605642075.3,286046998.8,N
1605642095.1,286047000.5,N
1605642115.9,286046999.7,N
1605642135.7,286047001.0,N
1605642155.5,286047002.6,N
1605642175.4,286047003.8,N
1605642195.2,286047004.1,N
1605642215.0,286047001.9,N
1605642215.9,286047001.9,N
1605642235.8,286047001.9,N
1605642255.6,286047002.2,N
1605642275.5,286047000.5,N
1605642295.3,286047002.5,N
1605642315.1,286047004.0,N
1605642335.9,286047004.4,N
1605642355.7,286047002.2,N
1605642375.5,286047002.2,N
1605642395.4,286047002.8,N
1605642415.2,286047002.3,N
1605642435.1,286047002.7,N
1605642436.0,286047002.7,N
1605642455.8,286047002.3,N
1605642475.6,286047001.7,N
1605642495.5,286047002.7,N
1605642515.3,286047002.5,N
1605642535.1,286047000.6,N
1605642555.9,286047001.1,N
1605642575.7,286047001.9,N
1605642595.6,286046999.9,N
1605642615.4,286047000.8,N
1605642635.2,286047002.4,N
1605642655.1,286047002.5,N
1605642656.0,286047002.5,N
1605642675.8,286047002.0,N
1605642695.6,286047002.1,N
1605642715.5,286047001.0,N
1605642735.3,286047001.0,N
1605642755.2,286047001.1,N
1605642775.9,286047000.9,N
1605642795.7,286046998.8,N
1605642815.6,286047000.4,N
1605642835.4,286047000.5,N
1605642855.2,286047000.8,N
1605642875.1,286047001.6,N
1605642876.0,286047001.6,N
1605642895.8,286047002.6,N
1605642915.7,286047003.6,Y
1605642935.5,286047001.5,P
1605642955.3,286047002.8,P
1605642975.2,286046999.9,N
1605642995.0,286046999.7,N
1605642995.9,286046999.7,N
1605643015.8,286047000.1,N
1605643035.6,286046999.7,N
1605643055.4,286047000.8,N
1605643075.3,286047002.1,N
1605643095.1,286047001.7,N
1605643115.8,286047001.4,N
1605643135.7,286047003.2,Y
1605643155.5,286046999.9,P
1605643175.4,286046999.8,N
1605643195.2,286047002.0,P
